www.pogodaiklimat.ru

Погода и климат >> Архив погоды >> Великобритания >> Aberdaron


ПОГОДА в Aberdaron

  • Прогноз погоды в Aberdaron
  • Монитор погоды в Aberdaron
  • Климат города

АРХИВ ПОГОДЫ в Aberdaron

Время (UTC), дата Ветер
(напр.,м/с)
 
Видим.   Явления Облачность Т
(С)
Тd
(С)
f
(%)
Тe
(С)
Тes
(С)
Комфортность P
(гПа)
Po
(гПа)
Тmin
(С)
Tmax
(С)
R
(мм)
R24
(мм)
S
(см)
07 19.06 СВ 1 50 км н/о +20.8 +14.3 66 +25 +25 комфорт 1021.0 1009.8
08 19.06 С 1 50 км н/о +21.4 +14.8 66 +24 +24 комфорт 1021.0 1009.8
09 19.06 С 3 50 км н/о +21.5 +14.4 64 +24 +24 комфорт 1020.8 1009.6
10 19.06 С 2 50 км н/о +22.7 +15.6 64 +27 +27 душно 1020.7 1009.5
11 19.06 С 2 50 км н/о +23.4 +15.6 62 +28 +28 душно 1020.5 1009.4
12 19.06 С 4 50 км н/о +22.3 +14.5 61 +26 +26 жарко 1020.6 1009.4
13 19.06 С 4 50 км н/о +22.1 +14.9 64 +26 +26 душно 1020.3 1009.1
14 19.06 С 6 50 км н/о +20.6 +14.0 66 +23 +23 комфорт 1020.0 1008.8
15 19.06 С 6 50 км н/о +21.4 +14.5 65 +24 +24 комфорт 1019.8 1008.6
16 19.06 С 8 50 км н/о +19.7 +13.8 69 +21 +21 комфорт 1019.6 1008.4
17 19.06 С 8 50 км н/о +19.5 +13.9 70 +20 +20 1019.3 1008.1
18 19.06 С 8 50 км н/о +20.0 +13.6 67 +21 +21 комфорт 1019.2 1008.0 +24.0
19 19.06 С 8 45 км н/о +16.4 +13.5 83 +15 +15 1019.4 1008.0
20 19.06 С 7 40 км н/о +15.6 +13.6 88 +14 +14 1019.6 1008.2
21 19.06 С 9 40 км н/о +15.1 +13.4 90 +13 +13 1019.8 1008.4
22 19.06 С 9
{13}
29 км н/о +15.1 +13.8 92 +13 +13 1020.1 1008.7
23 19.06 С 11
{14}
40 км н/о +14.7 +12.9 89 +12 +12 1020.4 1009.0
00 20.06 С 11
{14}
30 км н/о +13.7 +12.6 93 +10 +10 1020.1 1008.6
01 20.06 С 10
{14}
35 км н/о +12.9 +12.2 96 +9 +9 1020.1 1008.6
02 20.06 С 10
{13}
40 км н/о +12.8 +12.0 95 +9 +9 1019.9 1008.4
03 20.06 С 9
{14}
40 км н/о +12.5 +11.7 95 +9 +9 1019.9 1008.4
04 20.06 С 9
{14}
45 км н/о +12.4 +11.7 95 +9 +9 1019.7 1008.2
05 20.06 С 9 35 км н/о +12.4 +11.8 96 +9 +9 1019.8 1008.3
06 20.06 С 10 40 км н/о +12.5 +11.7 95 +9 +9 1020.0 1008.5 +12.1
07 20.06 С 10
{13}
35 км н/о +12.8 +11.7 93 +9 +9 1020.0 1008.5
08 20.06 С 9
{13}
45 км н/о +14.1 +12.4 89 +11 +11 1019.9 1008.5
09 20.06 С 9
{13}
45 км н/о +15.6 +13.2 86 +14 +14 1020.1 1008.7
10 20.06 С 8 50 км н/о +16.5 +13.6 83 +15 +15 1019.9 1008.6
11 20.06 С 8 45 км н/о +17.3 +14.0 81 +16 +16 1019.9 1008.6
12 20.06 С 8 50 км н/о +18.4 +14.7 79 +18 +18 1019.7 1008.4
13 20.06 С 7 50 км н/о +18.0 +14.1 78 +17 +17 1019.3 1008.0
14 20.06 С 6 50 км н/о +18.7 +14.6 77 +19 +19 1019.2 1007.9
15 20.06 С 5 50 км н/о +19.2 +14.6 75 +20 +20 1018.6 1007.4
16 20.06 С 5 45 км н/о +19.3 +15.1 77 +21 +21 комфорт 1017.8 1006.6
17 20.06 С 6 30 км н/о +19.3 +16.2 82 +21 +21 комфорт 1017.5 1006.3
18 20.06 С 6 24 км н/о +18.8 +15.7 82 +19 +19 1017.8 1006.5 +19.9
19 20.06 С 4 21 км н/о +18.4 +15.5 83 +19 +19 1017.5 1006.2
20 20.06 С 4 20 км н/о +16.9 +14.2 84 +17 +17 1017.6 1006.3
21 20.06 СВ 3 25 км н/о +18.6 +16.3 86 +20 +20 1017.1 1005.9
22 20.06 В 4 45 км н/о +20.6 +16.1 75 +24 +24 комфорт 1016.5 1005.4
23 20.06 В 5 23 км н/о +18.5 +17.2 92 +19 +19 1015.6 1004.4
00 21.06 В 4 11 км н/о +17.5 +16.8 96 +17 +17 1015.9 1004.7
01 21.06 ЮВ 4 11 км н/о +18.9 +17.2 90 +20 +20 1016.3 1005.1
02 21.06 ЮВ 4 11 км н/о +18.9 +16.9 88 +20 +20 1016.4 1005.2
03 21.06 В 6 7000 м н/о +17.9 +16.5 92 +17 +17 1015.2 1004.0
04 21.06 ЮВ 8 12 км н/о +18.5 +16.6 89 +18 +18 1015.7 1004.5
05 21.06 ЮВ 6 12 км н/о +18.4 +16.3 88 +18 +18 1015.8 1004.5
06 21.06 В 4 7000 м н/о +17.1 +16.1 94 +17 +17 1015.0 1003.7 +16.4
07 21.06 ЮВ 4 10 км н/о +17.9 +16.7 93 +18 +18 1015.5 1004.3
08 21.06 В 3 14 км н/о +18.9 +17.3 90 +20 +20 1014.9 1003.7
09 21.06 В 3 24 км н/о +20.9 +16.7 77 +25 +25 комфорт 1015.1 1004.0
10 21.06 В 4 26 км н/о +21.2 +16.8 76 +25 +25 комфорт 1014.0 1002.9
11 21.06 В 4 26 км н/о +22.2 +17.5 75 +27 +27 душно 1013.4 1002.3
12 21.06 В 4 35 км н/о +23.1 +17.1 69 +28 +28 душно 1012.7 1001.7
13 21.06 ЮВ 4 40 км н/о +24.1 +16.9 64 +28 +28 душно 1012.4 1001.4
14 21.06 ЮВ 6 35 км н/о +23.9 +17.5 67 +28 +28 душно 1011.7 1000.7
15 21.06 ЮЗ 7 20 км н/о +19.4 +16.6 84 +21 +21 комфорт 1011.7 1000.6
16 21.06 ЮЗ 9 14 км н/о +17.7 +15.1 85 +17 +17 1011.6 1000.3
17 21.06 ЮЗ 9 13 км н/о +17.7 +15.5 87 +17 +17 1011.4 1000.2
18 21.06 ЮЗ 9 400 м н/о +14.7 +14.1 96 +12 +12 1011.3 999.9 +24.4
19 21.06 Ю 7 100 м н/о +14.1 +14.1 100 +12 +12 1011.1 999.7
20 21.06 ЮЗ 8 <100 м н/о +13.8 +13.8 100 +11 +11 1011.3 999.9
21 21.06 ЮЗ 7 100 м н/о +13.7 +13.7 100 +11 +11 1011.7 1000.3
22 21.06 ЮЗ 6 100 м н/о +13.7 +13.7 100 +11 +11 1011.5 1000.1
23 21.06 ЮЗ 8 10 км н/о +13.4 +13.4 100 +11 +11 1011.5 1000.1
00 22.06 Ю 6 6000 м н/о +13.4 +13.4 100 +11 +11 1011.7 1000.3
01 22.06 Ю 6 8000 м н/о +13.1 +13.1 100 +11 +11 1011.5 1000.1
02 22.06 Ю 5 9000 м н/о +13.0 +13.0 100 +11 +11 1011.2 999.8
03 22.06 Ю 5 1800 м н/о +12.9 +12.9 100 +11 +11 1010.8 999.5
04 22.06 ЮЗ 5 100 м н/о +12.9 +12.9 100 +11 +11 1010.6 999.2
05 22.06 З 4 100 м н/о +12.7 +12.7 100 +11 +11 1010.7 999.3
06 22.06 СЗ 5 600 м н/о +12.9 +12.9 100 +11 +11 1010.8 999.4 +12.5 0.4
07 22.06 СЗ 6 100 м н/о +12.9 +12.9 100 +10 +10 1011.6 1000.2
08 22.06 С 7 7000 м н/о +13.1 +13.1 100 +10 +10 1012.2 1000.8
09 22.06 СЗ 6 4200 м н/о +12.9 +12.9 100 +10 +10 1012.7 1001.3
10 22.06 СЗ 8 26 км н/о +14.2 +14.2 100 +12 +12 1013.0 1001.7
11 22.06 СЗ 6 30 км н/о +14.8 +13.7 93 +13 +13 1013.7 1002.4
12 22.06 СЗ 6 40 км н/о +14.8 +13.0 89 +13 +13 1014.1 1002.8 0.6
13 22.06 С 5 50 км н/о +15.1 +12.7 86 +14 +14 1014.4 1003.1
14 22.06 СЗ 3 50 км н/о +15.3 +11.6 79 +15 +15 1014.7 1003.3
15 22.06 ЮЗ 3 45 км н/о +14.2 +12.1 87 +13 +13 1014.8 1003.4
16 22.06 Ю 4 40 км н/о +14.1 +11.8 86 +13 +13 1014.7 1003.3
17 22.06 Ю 5 35 км н/о +14.5 +13.1 91 +13 +13 1014.5 1003.2
18 22.06 ЮЗ 6 40 км н/о +13.6 +12.2 91 +11 +11 1014.8 1003.3 +16.3 0.6
19 22.06 ЮЗ 7 29 км н/о +13.2 +12.1 93 +10 +10 1014.8 1003.4
20 22.06 ЮЗ 7 20 км н/о +12.5 +11.6 94 +9 +9 1014.5 1003.0
21 22.06 ЮЗ 10
{13}
27 км н/о +12.5 +11.8 95 +9 +9 1014.6 1003.2
22 22.06 ЮЗ 10
{14}
25 км н/о +12.7 +11.8 94 +9 +9 1014.5 1003.1
23 22.06 ЮЗ 9
{14}
25 км н/о +12.8 +11.8 94 +10 +10 1014.2 1002.8
00 23.06 ЮЗ 9 16 км н/о +12.5 +11.7 95 +9 +9 1014.3 1002.8
01 23.06 ЮЗ 10
{15}
21 км н/о +12.6 +12.0 96 +9 +9 1014.0 1002.5
02 23.06 ЮЗ 12
{16}
29 км н/о +12.5 +11.1 91 +9 +9 1013.8 1002.3
03 23.06 ЮЗ 12
{16}
23 км н/о +12.7 +11.8 94 +9 +9 1013.3 1001.9
04 23.06 ЮЗ 14-20
{20}
25 км н/о +12.8 +11.8 94 +9 +9 1013.3 1001.9
05 23.06 ЮЗ 12
{18}
18 км н/о +12.4 +12.3 99 +8 +8 1013.5 1002.1
06 23.06 ЮЗ 14 10 км н/о +12.3 +12.3 100 +8 +8 1013.2 1001.8 +12.2 0.8
07 23.06 ЮЗ 16
{21}
14 км н/о +12.8 +12.4 97 +8 +8 1013.0 1001.6
08 23.06 ЮЗ 14
{21}
17 км н/о +13.0 +12.3 96 +9 +9 1013.9 1002.5
09 23.06 ЮЗ 15
{20}
16 км н/о +13.2 +12.4 95 +9 +9 1014.0 1002.6
10 23.06 ЮЗ 15
{22}
15 км н/о +13.2 +12.6 96 +9 +9 1013.9 1002.5
11 23.06 ЮЗ 14
{21}
12 км н/о +13.0 +12.8 99 +9 +9 1013.8 1002.4
12 23.06 ЮЗ 13-19
{19}
9000 м н/о +13.1 +13.0 99 +9 +9 1014.0 1002.5
13 23.06 ЮЗ 11
{18}
9000 м н/о +13.4 +13.3 99 +10 +10 1014.3 1002.9
14 23.06 ЮЗ 14
{20}
4600 м н/о +13.3 +13.2 99 +9 +9 1013.9 1002.5
15 23.06 ЮЗ 14
{19}
5000 м н/о +13.3 +13.3 100 +9 +9 1013.7 1002.3
16 23.06 ЮЗ 15
{20}
5000 м н/о +13.3 +13.3 100 +9 +9 1013.7 1002.3
17 23.06 ЮЗ 15
{21}
8000 м н/о +13.4 +13.4 100 +9 +9 1013.5 1002.1
18 23.06 ЮЗ 13-19
{20}
5000 м н/о +13.3 +13.3 100 +9 +9 1013.4 1002.0 +13.6
19 23.06 ЮЗ 12
{19}
800 м н/о +13.1 +13.1 100 +9 +9 1013.5 1002.1
20 23.06 ЮЗ 13
{18}
600 м н/о +13.2 +13.2 100 +9 +9 1013.3 1001.9
21 23.06 ЮЗ 13
{19}
800 м н/о +13.1 +13.1 100 +9 +9 1013.6 1002.2
22 23.06 ЮЗ 11
{18}
300 м н/о +13.0 +13.0 100 +9 +9 1013.8 1002.4
23 23.06 ЮЗ 7
{13}
1600 м н/о +12.9 +12.9 100 +10 +10 1013.9 1002.4
00 24.06 З 5 3300 м н/о +12.4 +12.4 100 +10 +10 1013.8 1002.4 0.2
01 24.06 З 5 30 км н/о +12.5 +12.5 100 +10 +10 1014.3 1002.8
02 24.06 З 6 50 км н/о +11.9 +11.9 100 +9 +9 1014.2 1002.8
03 24.06 З 7 50 км н/о +11.6 +11.0 96 +8 +8 1014.3 1002.8
04 24.06 З 6 50 км н/о +11.7 +10.1 90 +9 +9 1014.1 1002.6
05 24.06 З 3 50 км н/о +11.8 +10.7 93 +10 +10 1014.1 1002.6
06 24.06 З 6 40 км н/о +12.1 +11.0 93 +9 +9 1013.9 1002.5 +11.6 0.2
07 24.06 З 5 35 км н/о +12.4 +11.3 93 +10 +10 1014.2 1002.7
08 24.06 ЮЗ 5 27 км н/о +12.9 +11.7 92 +11 +11 1014.0 1002.6
09 24.06 ЮЗ 7 35 км н/о +13.6 +12.6 94 +11 +11 1014.0 1002.6
10 24.06 ЮЗ 6 35 км н/о +13.5 +12.2 92 +11 +11 1014.1 1002.7
11 24.06 ЮЗ 8 30 км н/о +14.1 +12.8 92 +12 +12 1013.9 1002.6
12 24.06 ЮЗ 8 23 км н/о +13.6 +12.8 95 +11 +11 1014.1 1002.7
13 24.06 ЮЗ 6 25 км н/о +14.8 +13.6 93 +13 +13 1013.9 1002.5
14 24.06 ЮЗ 8 19 км н/о +13.2 +12.4 95 +10 +10 1013.7 1002.3
15 24.06 ЮЗ 8 21 км н/о +14.2 +12.9 92 +12 +12 1013.2 1001.9
16 24.06 ЮЗ 8 25 км н/о +14.5 +13.0 91 +12 +12 1012.5 1001.2
17 24.06 ЮЗ 9 29 км н/о +14.1 +12.8 92 +11 +11 1012.4 1001.0
18 24.06 ЮЗ 12 30 км н/о +13.7 +12.5 92 +10 +10 1012.0 1000.7 +14.8
19 24.06 ЮЗ 12
{17}
26 км н/о +13.5 +12.6 94 +10 +10 1011.9 1000.5
20 24.06 ЮЗ 9
{15}
18 км н/о +13.1 +12.4 96 +10 +10 1012.2 1000.8
21 24.06 З 5 17 км н/о +12.8 +12.1 96 +11 +11 1012.7 1001.2
22 24.06 З 6 50 км н/о +12.8 +9.3 79 +10 +10 1012.9 1001.5
23 24.06 З 9 45 км н/о +12.7 +9.2 79 +10 +10 1012.8 1001.4
00 25.06 З 8 40 км н/о +12.5 +9.7 83 +9 +9 1012.6 1001.2
01 25.06 З 6 45 км н/о +12.2 +9.5 84 +9 +9 1012.3 1000.9
02 25.06 З 6 45 км н/о +12.1 +9.5 84 +9 +9 1012.1 1000.7
03 25.06 З 6 45 км н/о +12.1 +10.0 87 +9 +9 1012.1 1000.6
04 25.06 ЮЗ 5 35 км н/о +12.0 +10.3 89 +10 +10 1011.6 1000.2
05 25.06 ЮЗ 4 22 км н/о +11.9 +11.0 94 +10 +10 1011.4 1000.0
06 25.06 ЮЗ 7 21 км н/о +12.5 +12.2 98 +9 +9 1011.1 999.7 +11.9
07 25.06 ЮЗ 8 16 км н/о +12.7 +12.6 99 +10 +10 1011.0 999.6
08 25.06 ЮЗ 8 14 км н/о +12.8 +12.8 100 +10 +10 1011.3 999.9
09 25.06 ЮЗ 8 16 км н/о +13.5 +13.2 98 +11 +11 1011.5 1000.1
10 25.06 ЮЗ 7 20 км н/о +13.2 +12.6 96 +10 +10 1011.8 1000.4
11 25.06 СЗ 5 14 км н/о +13.0 +12.1 94 +11 +11 1012.5 1001.1
12 25.06 СЗ 6 50 км н/о +14.4 +12.2 87 +13 +13 1012.8 1001.4
13 25.06 С 6 50 км н/о +14.0 +11.4 84 +12 +12 1013.4 1002.1
14 25.06 СЗ 5 50 км н/о +14.1 +11.5 84 +12 +12 1013.8 1002.4
15 25.06 С 4 50 км н/о +13.4 +10.4 82 +12 +12 1014.0 1002.5
16 25.06 СЗ 3 50 км н/о +14.2 +10.2 77 +13 +13 1014.3 1002.9
17 25.06 ЮЗ 2 600 м н/о +12.5 +10.4 87 +12 +12 1014.5 1003.0
18 25.06 ЮЗ 3 600 м н/о +12.5 +10.7 89 +11 +11 1014.5 1003.1 +15.0
19 25.06 ЮЗ 2 1300 м н/о +12.2 +10.5 89 +12 +12 1014.9 1003.5
20 25.06 ЮЗ 2 900 м н/о +12.0 +10.6 91 +11 +11 1014.8 1003.3
21 25.06 ЮЗ 2 600 м н/о +11.8 +10.9 94 +11 +11 1015.4 1004.0
22 25.06 ЮЗ 3 600 м н/о +11.7 +11.3 97 +10 +10 1015.7 1004.2
23 25.06 ЮЗ 3 1900 м н/о +11.8 +10.7 93 +10 +10 1015.7 1004.2
00 26.06 ЮЗ 2 2300 м н/о +11.8 +11.1 95 +11 +11 1015.7 1004.3
01 26.06 ЮЗ 2 3500 м н/о +11.8 +11.1 95 +11 +11 1015.7 1004.2
02 26.06 СЗ 2 19 км н/о +11.6 +10.9 95 +11 +11 1015.7 1004.2
03 26.06 СЗ 2 4500 м н/о +11.8 +11.5 98 +11 +11 1015.6 1004.1
04 26.06 С 3 27 км н/о +11.6 +11.4 99 +10 +10 1015.2 1003.7
05 26.06 С 3 45 км н/о +11.6 +11.1 97 +10 +10 1015.2 1003.7
06 26.06 СВ 3 40 км н/о +12.3 +11.4 94 +11 +11 1015.3 1003.8 +11.4
07 26.06 СВ 2 50 км н/о +12.9 +9.9 82 +12 +12 1015.5 1004.0

 

Местоположение метеостанции Aberdaron (Великобритания): широта 52.78 долгота -4.73 высота над уровнем моря 94 м.

В архиве по умолчанию представлена погода в Aberdaron за последнюю неделю. Архивные данные за месяц целиком и за предыдущие месяцы, начиная с января 2011 года, Вы можете получить, выбрав интересующий диапазон дат из раскрывающегося списка и нажав кнопку "Ввод!".

Внимание! Время в таблицах - всемирное. Для получения местного времени необходимо прибавить поправку, которая в Aberdaron равна 0 ч.

Смотрите также архив погоды в соседних городах и на ближайших метеорологических станциях:

Погода в Valley (Великобритания) (54 км)
Погода в Mona (Великобритания) (58 км)
Погода в Capel Curig (Великобритания) (64 км)
Погода в Trawsgoed (Великобритания) (71 км)
Погода в Aberporth (Великобритания) (73 км)
Погода в Bala (Великобритания) (79 км)
Погода в Lake Vyrnwy (Великобритания) (85 км)
Погода в Rhyl (Великобритания) (98 км)
Погода в Sennybridge (Великобритания) (109 км)
Погода в Pembrey Sands (Великобритания) (120 км)

Пояснения к столбцам:

Ветер - указаны скорость ветра в м/с - средняя за 10 мин, порывы в срок и между сроками (в фигурных скобках) и направление, откуда дует ветер: С - северный, СВ - северо-восточный, В - восточный, ЮВ - юго-восточный, Ю - южный, ЮЗ - юго-западный, З - западный, СЗ - северо-западный.
Видимость - горизонтальная дальность видимости в метрах или километрах. При видимости от 1 до 10 км при отсутствии осадков обычно наблюдается дымка, при ухудшении видимости до 1 км и менее - туман. В сухую погоду видимость может ухудшаться дымом, пылью или мглою.
Явления - указаны атмосферные явления, наблюдавшиеся в срок или в последний час перед сроком; фигурными скобками обозначены явления, наблюдавшиеся между сроками (за 1-3 часа до срока); квадратными скобками обозначены град или гололедные отложения с указанием их диаметра в мм.
Облачность - указаны через наклонную черту общая и нижняя облачность в баллах и высота нижней границы облаков в метрах; квадратными скобками обозначены формы облаков: Ci - перистые, Cs - перисто-слоистые, Cc - перисто-кучевые, Ac - высококучевые, As - высокослоистые, Sc - слоисто-кучевые, Ns - слоисто-дождевые, Cu - кучевые, Cb - кучево-дождевые. Подробнее классификацию облаков см. в Атласе облаков (PDF).
T - Температура воздуха - температура, измеренная на высоте 2 м над землей.
Td - Температура точки росы - температура, при понижении до которой содержащийся в воздухе водяной пар достигнет насыщения.
f - Относительная влажность воздуха - влажноcть воздуха, измеренная на высоте 2 м над землей.
Te - Эффективная температура - температура, которую ощущает одетый по сезону человек в тени. Характеристика душности погоды. При расчете учитывается влияние влажности воздуха и скорости ветра на теплоощущения человека.
Tes - Эффективная температура на солнце - температура, которую ощущает человек, с поправкой на солнечный нагрев. Характеристика знойности погоды. Зависит от высоты солнца над горизонтом, облачности и скорости ветра. Ночью, в пасмурную погоду, а также при ветре 12 м/с и более поправка равна нулю.
P - Атмосферное давление - приведенное к уровню моря атмосферное давление.
Po - Атмосферное давление - измеренное на уровне метеостанции атмосферное давление.
Tmin - Минимальная температура - минимум температуры воздуха на высоте 2 м над землей.
Tmax - Максимальная температура - максимум температуры воздуха на высоте 2 м над землей.
R - Количество осадков - Количество выпавших осадков за период времени, мм. При наведении курсора мыши на число - период времени, за который выпало указанное количество осадков.
R24 - Количество осадков - Количество выпавших осадков за 24 часа, мм.
S - Снежный покров - Высота снежного покрова, см. При наведении курсора мыши на число - состояние снежного покрова и степень покрытия местности в баллах.